Probability
3 3 3 3 4 5 5 4 4 3 4 8 12 17 21 18 12 10 7 3 0 0 0 1 2 4 5 4 6 8 7 5 4 2 1 1 0 0
2 2 2 2 2 3 4 5 6 5 4 7 9 14 17 15 11 9 7 4 1 0 0 0 1 3 3 3 3 4 3 2 1 1 0 0 0 0
1 0 1 1 0 1 3 5 6 6 4 4 6 11 14 13 10 9 6 4 2 1 0 0 0 1 1 1 1 1 0 0 0 0 0 0 0 0
0 0 0 0 0 0 1 2 4 5 4 2 4 8 12 12 10 7 5 3 2 1 0 0 0 0 0 0 0 0 0 0 0 0 0 0 0 0
0 0 0 0 0 0 0 0 1 2 2 2 2 6 10 10 9 6 4 3 2 0 0 0 0 0 0 0 0 0 0 0 0 0 0 0 0 0
0 0 0 0 0 0 0 0 0 0 1 1 2 5 8 8 7 5 4 4 2 0 0 1 1 0 0 0 0 0 0 0 0 0 0 0 0 0
0 0 0 0 0 0 0 0 0 0 0 0 1 3 5 5 4 4 4 4 2 0 1 2 2 1 1 0 0 0 0 0 0 0 0 0 0 0
0 0 0 0 0 0 0 0 0 0 0 0 0 1 3 3 3 3 3 3 1 0 2 3 3 3 2 1 0 0 0 0 0 0 0 0 0 0
0 0 0 0 0 0 0 0 0 0 0 0 0 0 1 2 3 3 4 3 1 1 2 3 3 3 2 1 0 0 0 0 0 0 0 0 0 0
0 0 0 0 0 0 0 0 0 0 0 0 0 0 0 1 2 3 4 4 2 1 1 1 1 3 3 1 0 0 0 0 0 0 0 0 0 0
0 0 0 0 0 0 0 0 0 0 0 0 0 0 0 0 2 3 3 2 1 0 0 0 1 2 2 1 0 0 0 0 0 0 0 0 0 0
0 0 0 0 0 0 0 0 0 0 0 0 0 0 0 0 1 3 2 1 0 0 0 0 1 2 2 1 1 0 0 0 0 0 0 0 0 0
0 0 0 0 0 0 0 0 0 0 0 0 0 1 0 0 1 2 2 1 0 0 0 0 1 2 1 2 2 1 0 0 0 0 0 0 0 0
0 0 0 0 0 0 0 0 0 0 0 0 0 0 0 0 0 1 1 1 1 0 0 0 1 1 2 2 2 1 1 0 0 0 0 0 0 0
0 0 0 0 0 0 0 0 0 0 0 0 0 0 0 0 0 0 1 2 2 1 0 0 0 1 1 2 3 3 2 1 0 0 0 0 0 0
0 0 0 0 0 0 0 0 0 0 0 0 0 0 0 0 0 0 1 1 2 1 0 0 0 0 1 2 3 3 2 1 0 0 0 0 0 0
0 0 0 0 0 0 0 0 0 0 0 0 0 0 0 0 0 0 0 0 1 1 1 0 0 0 0 1 2 2 2 1 0 0 0 0 0 0
0 0 0 0 0 0 0 0 0 0 0 0 0 0 0 0 0 0 0 0 1 1 1 0 0 0 0 0 1 1 1 0 0 0 0 0 0 0
0 0 0 0 0 0 0 0 0 0 0 0 0 0 0 0 0 0 0 0 0 0 0 1 1 0 0 0 0 0 1 0 0 0 0 0 0 0
0 0 0 0 0 0 0 0 0 0 0 0 0 0 0 0 0 0 0 0 0 0 0 1 1 0 0 0 0 0 0 0 0 0 0 0 0 0
0 0 0 0 0 0 0 0 0 0 0 0 0 0 0 0 0 0 0 0 0 0 0 0 0 0 0 0 0 0 0 0 0 0 0 0 0 0
0 0 0 0 0 0 0 0 0 0 0 0 0 0 0 0 0 0 0 0 0 0 0 0 0 0 0 0 0 0 0 0 0 0 0 0 0 0
0 0 0 0 0 0 0 0 0 0 0 0 0 0 0 0 0 0 0 0 0 0 0 0 0 0 0 0 0 0 0 0 0 0 0 0 0 0
Wind_Speed
5 6 5 4 4 4 3 3 3 4 4 3 2 2 2 2 5 5 5 10 13 15 16 17 18 19 19 20 20 20 19 19 19 19 18 18 18 18
5 6 5 5 4 4 4 4 4 4 5 3 2 2 2 2 4 4 5 9 12 14 15 16 17 18 18 19 19 19 19 19 18 18 18 17 17 17
6 7 6 6 5 4 4 4 4 4 5 4 3 2 2 2 2 3 3 5 7 13 15 16 16 17 18 18 18 19 19 19 19 18 18 17 17 17
6 7 7 6 6 5 5 5 5 5 4 5 4 3 3 3 3 4 4 5 5 10 14 15 16 17 17 18 18 18 18 18 18 18 18 17 17 16
7 7 7 7 6 5 5 5 5 6 4 4 5 4 3 3 3 3 4 3 4 6 10 13 15 16 16 17 17 17 17 17 17 17 17 16 16 15
7 7 7 7 7 6 6 6 6 6 5 5 4 4 3 4 3 3 3 3 3 4 5 6 9 13 15 15 16 17 17 17 16 16 16 15 15 14
7 7 8 9 8 7 7 5 5 4 4 4 5 4 4 3 3 3 4 3 3 3 3 3 4 6 8 12 14 16 16 16 16 15 15 14 14 13
8 8 8 10 11 12 13 11 9 7 6 5 5 5 5 4 3 3 3 3 3 3 3 2 3 4 5 6 11 14 15 16 15 15 15 14 13 12
8 8 9 11 8 6 8 11 12 13 12 8 7 6 5 4 3 3 3 4 3 3 2 2 2 2 2 5 13 14 15 15 15 15 14 14 13 12
8 8 8 8 9 7 6 6 7 8 10 10 8 7 7 5 4 4 3 3 1 2 2 2 2 2 2 3 9 13 14 14 14 14 14 14 13 12
8 8 8 7 6 6 6 6 6 6 8 10 10 10 10 8 6 3 3 3 3 2 2 2 2 2 2 3 5 10 12 13 13 14 14 14 13 11
6 6 7 6 5 5 5 6 6 5 5 5 5 7 8 8 9 7 5 4 3 3 3 2 3 3 2 2 4 5 7 9 12 12 13 14 14 8
7 5 3 3 4 6 6 5 6 5 4 4 4 4 4 5 6 6 6 5 4 3 3 3 3 3 3 3 3 4 6 6 6 7 10 13 12 8
7 6 4 3 5 7 6 7 7 5 5 5 4 4 4 5 5 5 6 5 4 4 4 4 3 3 4 4 3 4 5 6 6 6 6 9 7 7
7 9 9 9 8 8 11 11 8 6 6 6 5 5 4 4 4 4 5 5 4 4 5 4 4 4 4 4 5 5 5 5 6 7 7 7 6 6
6 8 10 11 10 9 7 7 7 7 6 6 5 4 3 3 4 4 4 5 4 3 4 5 5 6 4 4 5 6 5 6 7 7 7 6 6 6
6 7 6 5 5 5 5 5 5 5 6 5 5 4 4 4 4 4 4 5 5 5 5 4 3 3 4 4 5 6 6 5 6 7 7 7 6 6
5 7 6 5 5 5 5 4 4 5 5 5 4 4 4 4 4 4 4 5 5 5 5 5 5 4 2 1 3 6 6 6 6 7 6 6 6 6
5 7 6 5 5 5 4 4 4 5 4 4 4 4 4 4 4 4 4 4 4 5 5 5 6 5 5 4 3 4 6 6 7 6 6 5 5 6
6 6 5 5 4 4 4 4 4 4 3 4 4 4 5 4 4 4 5 5 5 5 5 5 6 6 6 5 4 4 6 7 7 7 6 4 4 6
5 4 4 4 4 4 4 3 3 3 3 4 4 4 4 5 5 4 4 6 5 5 6 6 6 8 4 4 5 4 3 5 6 6 7 6 5 5
4 4 4 3 3 4 3 3 3 3 3 3 3 4 4 4 5 5 5 5 5 5 5 5 6 6 4 5 6 6 6 5 5 7 6 4 5 7
3 4 4 4 3 2 2 2 3 2 3 3 3 3 4 4 4 4 5 5 5 5 5 6 5 5 5 5 5 6 8 8 6 5 3 6 5 6
Wind_Direction
273 271 261 267 271 267 262 246 247 262 264 264 252 213 196 183 183 195 205 203 206 207 211 212 210 207 205 205 206 207 209 209 210 210 211 212 214 216
272 265 263 260 264 269 267 258 242 243 258 268 263 260 224 207 187 201 214 209 208 209 210 214 213 209 207 205 205 205 206 207 207 207 208 209 210 212
280 276 267 262 262 269 268 265 257 244 250 258 263 268 232 222 200 209 214 207 211 212 210 213 213 212 208 206 204 204 204 204 204 206 207 208 209 211
288 284 279 272 260 257 262 264 263 259 252 256 260 261 249 226 217 213 226 228 220 211 210 212 212 211 208 206 205 203 202 202 202 204 206 206 208 209
289 286 282 277 269 259 256 259 263 265 254 249 252 249 246 235 224 225 229 231 237 217 208 211 210 208 206 204 203 201 201 200 201 202 202 203 204 204
286 285 281 274 270 266 262 252 253 258 266 262 249 245 245 239 217 216 228 222 230 230 212 202 201 203 204 202 201 198 197 197 198 198 198 197 197 198
294 287 282 279 273 261 261 257 262 260 261 262 257 246 237 230 222 214 220 213 224 211 193 192 186 191 197 201 201 197 193 192 191 191 190 189 189 189
291 287 285 276 262 248 243 244 243 249 251 251 254 251 247 242 236 228 217 210 228 199 184 202 187 189 188 191 189 187 185 184 184 183 181 179 180 181
283 284 285 285 293 277 251 240 240 242 240 242 249 251 253 250 242 236 234 227 225 195 172 206 188 187 174 173 170 173 176 176 176 176 175 173 173 174
274 274 273 276 282 286 281 266 249 240 233 231 231 238 244 235 229 230 231 239 237 217 188 199 182 159 128 134 157 163 167 169 170 170 168 166 165 165
280 281 279 276 275 274 267 264 260 258 255 242 224 224 224 222 214 207 215 212 220 219 195 178 161 128 118 122 138 150 155 159 162 163 161 158 156 153
290 284 282 284 286 278 268 265 261 260 267 272 245 226 219 213 208 207 207 212 208 211 195 168 159 137 129 121 136 143 141 145 152 156 157 157 157 157
297 297 297 304 287 272 263 262 262 270 268 264 261 242 224 213 211 210 203 204 209 213 184 164 160 149 135 136 137 150 149 147 148 152 160 163 167 166
291 295 305 293 281 272 260 257 262 266 259 252 245 236 225 221 217 209 201 202 210 203 181 169 163 163 146 144 147 148 153 154 154 153 159 166 173 173
281 295 300 287 278 265 251 249 249 245 243 241 236 232 225 221 218 207 198 198 199 197 188 186 172 169 162 154 150 154 153 160 162 159 161 169 173 170
285 293 281 266 259 263 263 240 230 235 237 238 234 229 220 216 216 205 197 189 185 195 188 180 174 174 177 161 153 158 158 160 165 165 160 165 173 179
318 294 282 274 260 249 245 241 234 228 233 235 230 219 215 214 216 205 194 186 184 185 180 172 170 162 159 153 158 162 158 157 162 162 162 166 176 180
289 281 283 279 273 266 256 243 234 232 231 226 218 210 214 215 210 200 192 188 182 179 176 167 159 149 133 108 168 165 168 164 160 164 165 165 173 174
257 266 273 276 275 270 256 245 238 228 221 220 213 208 212 209 203 196 193 187 184 179 174 168 170 171 171 166 168 181 168 161 160 167 173 165 164 162
248 260 268 273 272 271 262 250 238 224 212 217 217 210 204 206 206 196 189 188 184 178 174 173 178 181 182 167 154 165 176 163 163 168 163 132 107 108
275 274 273 274 273 271 261 250 238 222 209 211 217 212 205 205 209 202 186 188 187 182 182 183 183 172 156 137 138 143 150 155 154 161 156 148 146 148
288 291 292 282 275 272 264 251 242 225 215 215 215 215 207 204 205 199 187 188 193 189 184 171 162 165 165 167 164 154 146 135 108 107 109 121 158 171
299 302 300 301 293 285 274 258 250 232 212 209 212 217 207 206 202 194 190 192 192 187 172 162 161 166 171 171 167 158 154 152 149 138 95 44 77 115